Wind_Speed
20 20 20 21 21 22 22 22 22 22 25 28 29 29 29 30 33 34 35 36 36 35 33 32 30 28 27 27 26 26 24 21 22 23 24 25 26 25 27 27 27 27 26 26
18 18 18 18 19 20 20 20 20 21 24 26 27 27 26 27 29 31 32 33 34 34 33 32 30 30 29 27 27 27 27 24 23 24 25 25 24 23 26 26 27 27 26 25
15 16 16 17 17 17 17 17 18 20 22 24 25 25 23 23 25 27 29 30 31 31 31 30 30 30 29 28 27 27 26 24 25 26 26 25 24 23 25 25 26 27 26 25
14 15 15 15 15 15 14 16 18 19 20 21 22 22 21 20 22 24 26 27 28 28 28 29 29 30 29 28 27 26 24 24 25 25 25 24 24 23 24 25 26 27 27 26
13 14 14 13 13 14 13 15 17 18 18 18 18 20 19 19 20 22 23 24 25 25 26 27 28 28 28 27 26 26 24 23 24 23 24 23 23 23 23 24 25 26 25 25
12 13 13 12 12 13 13 14 16 16 17 17 16 18 16 17 18 20 21 22 22 23 24 26 26 27 27 27 25 24 24 24 24 25 24 22 22 23 23 23 23 23 23 24
10 10 11 11 11 12 13 13 14 15 15 16 16 17 16 16 17 18 19 20 21 22 22 23 25 25 26 26 25 25 24 23 23 24 25 23 22 22 22 23 24 24 24 25
9 9 10 10 10 12 14 13 13 13 14 15 15 15 14 15 15 16 18 19 20 22 22 22 23 24 24 24 24 24 24 24 23 23 23 23 22 21 22 23 24 25 25 26
9 8 9 10 11 12 13 13 13 13 13 14 14 13 13 14 14 16 17 17 19 21 21 21 21 22 23 23 23 23 23 23 24 24 25 24 23 23 24 25 25 26 26 27
9 9 9 10 10 11 12 12 13 12 12 13 13 12 13 14 14 15 17 18 18 19 19 20 21 21 22 23 23 23 23 24 24 25 26 25 25 25 27 27 27 28 28 28
9 9 8 10 11 11 10 11 12 12 12 13 14 13 13 13 14 13 14 15 15 16 17 18 19 20 20 20 21 23 23 25 26 27 27 27 27 27 28 28 28 29 30 31
8 9 8 8 9 9 9 9 10 11 12 12 14 13 12 12 12 12 12 12 13 14 16 17 19 20 21 22 22 23 24 25 26 27 28 29 29 29 30 30 30 31 32 33
8 8 8 7 7 9 9 9 10 10 11 12 13 12 12 12 13 12 12 11 13 14 16 17 18 19 21 23 24 24 26 27 27 28 28 29 29 29 29 30 31 32 33 34
7 8 7 6 6 8 8 9 9 10 12 12 12 12 11 12 12 12 12 12 13 14 16 17 18 18 20 22 24 26 26 26 27 28 28 28 28 29 30 31 31 32 33 33
7 6 6 6 5 7 7 8 9 10 11 11 11 11 10 10 10 11 11 12 14 15 16 16 17 19 20 21 23 25 25 26 26 27 27 28 28 29 29 30 31 31 32 32
6 5 4 4 5 6 7 7 9 10 11 11 11 10 9 10 11 11 12 12 13 15 15 16 17 18 20 21 22 23 23 24 24 25 26 26 27 28 28 28 28 29 29 29
5 4 3 3 4 5 7 8 9 10 11 11 11 11 11 12 12 12 13 13 14 14 14 15 16 17 18 19 20 21 21 22 23 23 24 24 25 25 26 26 26 26 26 26
5 4 3 3 4 6 7 8 9 10 10 10 11 11 12 12 12 13 12 12 12 14 15 15 16 17 17 18 19 20 21 22 22 22 22 23 23 23 23 23 24 24 24 24
5 3 2 3 4 6 6 7 8 9 10 10 10 11 11 11 11 11 11 11 12 14 15 16 17 18 19 19 19 19 20 20 20 21 21 21 21 21 22 22 22 22 22 22
4 2 2 3 4 5 6 7 8 9 9 10 10 10 10 11 11 11 10 11 12 13 14 15 17 18 18 18 19 19 20 20 20 20 20 20 20 21 21 21 21 21 21 21
2 0 1 2 4 5 6 7 8 9 9 9 9 9 10 9 10 10 10 10 11 12 13 14 15 15 16 16 17 18 18 18 19 19 19 19 19 19 19 19 19 19 19 19
3 1 2 3 4 5 7 8 9 9 9 10 10 10 10 10 10 10 10 10 11 11 12 13 14 14 15 16 16 16 16 16 16 16 16 16 17 17 17 17 18 18 18 17
3 2 2 4 5 6 7 8 9 9 10 10 11 10 10 10 10 10 10 10 10 10 11 12 13 14 14 14 13 13 13 13 13 14 14 15 15 16 16 16 16 15 15 14
3 2 2 4 5 6 8 9 9 10 11 11 11 11 10 10 10 10 10 10 10 10 10 11 11 12 11 11 11 10 11 12 12 12 13 13 13 13 13 12 12 12 11 11
4 3 3 4 6 7 9 10 10 11 11 12 11 11 11 11 11 11 11 11 11 11 10 10 10 9 8 8 9 9 9 9 10 10 11 11 10 10 10 9 9 9 8 8
4 3 3 5 7 9 10 10 11 11 12 12 12 12 12 12 12 12 12 11 11 11 10 9 8 7 7 7 6 6 6 7 8 8 8 8 8 7 7 7 7 6 6 7
Wind_Direction
287 285 282 276 271 267 263 258 254 248 244 246 247 247 244 240 239 239 239 240 240 241 243 245 250 254 258 263 269 272 274 273 271 269 263 256 252 246 240 239 236 237 237 240
286 284 282 278 274 269 264 259 251 243 241 243 245 245 244 240 237 237 238 239 240 241 243 245 248 252 255 261 267 271 275 271 272 269 261 255 251 244 240 240 238 237 238 241
285 284 281 276 273 269 263 257 249 243 241 244 246 245 242 238 236 235 236 237 238 239 241 244 246 250 254 260 264 269 270 268 270 271 266 259 250 245 245 244 242 243 245 245
289 284 280 276 272 266 261 255 250 246 240 240 245 246 239 235 235 234 234 235 238 238 239 241 243 246 252 258 261 265 265 265 268 269 265 264 256 251 247 245 246 249 249 249
293 288 280 271 265 261 259 252 249 247 243 242 244 247 238 235 233 232 233 235 237 239 239 240 243 247 250 255 259 263 263 266 269 274 272 264 260 257 254 251 253 252 251 255
297 289 281 270 260 255 255 251 248 246 246 247 247 249 245 238 234 232 235 237 239 239 240 242 244 246 249 253 256 258 260 264 269 274 273 267 265 263 260 261 262 257 258 261
299 288 280 270 256 251 250 251 251 249 249 251 252 253 252 249 240 237 240 241 242 242 245 245 246 247 250 253 255 257 259 263 268 272 273 271 269 267 264 264 266 266 268 269
298 285 280 272 261 251 244 248 253 254 253 255 261 264 262 263 253 249 247 246 247 248 250 248 247 248 249 252 254 255 257 261 265 269 271 269 271 271 270 269 270 270 271 271
304 298 284 273 262 249 244 246 250 253 255 258 264 269 272 269 262 262 260 258 258 258 257 253 253 253 251 251 253 254 257 258 261 265 268 269 271 274 274 273 273 274 274 274
305 298 284 274 262 253 249 248 248 252 258 261 264 270 277 274 271 270 267 265 263 263 259 257 255 255 254 253 253 255 257 259 261 262 265 269 271 272 271 272 273 274 274 276
296 292 285 273 263 256 247 247 249 251 258 264 272 280 282 279 276 277 270 266 264 257 255 255 254 253 253 254 256 257 259 260 260 262 264 267 270 271 272 272 273 273 275 277
286 285 282 274 261 252 246 249 253 257 260 267 276 281 286 285 280 278 275 266 259 258 256 256 254 251 252 254 256 258 259 262 262 263 266 268 269 270 270 271 273 274 276 278
280 278 279 270 257 246 246 256 259 264 266 272 278 282 283 283 280 280 276 269 260 259 261 260 258 258 255 257 258 259 261 263 265 266 267 268 270 271 272 273 275 276 277 279
281 276 276 270 256 245 251 260 265 269 272 278 285 286 282 279 276 278 274 270 265 264 263 261 261 262 260 260 260 261 262 263 266 268 269 271 272 273 273 275 277 278 279 281
271 267 264 260 253 247 256 262 273 278 283 288 292 291 287 281 280 281 279 272 273 272 269 264 263 263 263 263 263 262 263 265 267 269 270 272 272 274 275 277 278 279 280 282
262 262 258 258 260 258 264 270 279 285 289 293 293 294 294 287 286 282 279 278 275 273 271 266 265 266 265 264 264 264 265 266 267 269 271 274 275 276 278 279 280 282 282 283
252 251 258 266 266 271 278 281 287 291 292 296 297 296 294 293 290 287 283 276 274 273 272 268 267 267 266 265 266 267 268 269 271 273 274 274 275 277 279 281 283 283 284 285
239 249 261 275 275 289 300 293 298 302 301 301 302 300 297 294 293 291 287 281 279 277 275 273 271 268 267 267 268 270 270 271 273 276 277 278 279 281 281 283 284 285 285 286
230 243 278 306 299 309 309 311 310 311 311 311 309 309 307 302 296 292 286 281 278 275 272 271 270 270 271 272 273 273 273 275 278 281 282 283 284 283 284 284 286 288 289 289
226 252 318 333 331 330 332 329 329 326 321 320 318 315 312 309 302 298 291 286 283 278 278 276 275 274 275 275 274 275 277 279 281 282 283 284 285 285 286 287 288 290 290 290
199 217 358 7 360 356 348 344 342 337 336 335 333 330 325 317 310 308 303 297 291 287 286 284 283 283 283 280 278 278 279 280 281 282 283 284 286 287 288 288 289 291 292 290
150 112 55 21 11 2 358 353 352 352 351 350 348 344 337 327 321 319 317 312 306 300 295 292 291 290 287 283 281 281 282 283 284 284 284 286 288 290 291 292 292 293 293 292
148 106 49 28 18 12 7 2 360 358 357 357 355 351 346 341 338 336 331 326 318 310 306 302 299 297 292 285 284 286 287 288 288 289 288 289 289 292 294 296 296 295 295 295
152 108 55 32 22 17 14 10 7 6 5 3 2 1 0 358 354 351 346 341 333 325 318 313 307 305 301 294 290 291 293 294 292 293 295 295 295 296 298 300 300 300 301 302
152 112 69 44 33 26 21 16 15 14 11 9 10 10 8 8 5 359 355 351 345 340 332 325 320 315 310 303 299 297 299 300 301 303 304 303 302 303 304 305 308 309 311 314
145 113 75 54 41 34 28 25 23 20 18 17 17 16 13 11 9 6 3 359 355 352 346 343 337 329 323 318 312 309 309 310 313 316 319 318 317 318 317 317 319 323 328 330
Height
5775 5774 5772 5771 5771 5771 5772 5772 5773 5775 5774 5775 5777 5779 5782 5784 5786 5789 5792 5796 5800 5804 5808 5812 5815 5817 5818 5819 5820 5820 5820 5821 5821 5821 5821 5822 5824 5826 5827 5829 5830 5832 5833 5835
5771 5770 5768 5767 5767 5767 5767 5768 5769 5770 5770 5771 5772 5774 5777 5779 5781 5784 5787 5790 5794 5798 5802 5806 5809 5811 5813 5814 5814 5815 5815 5816 5817 5816 5816 5816 5817 5819 5821 5823 5825 5826 5828 5829
5767 5766 5764 5764 5763 5763 5763 5764 5764 5766 5766 5767 5768 5770 5772 5774 5776 5779 5782 5785 5788 5792 5796 5800 5803 5805 5806 5808 5809 5810 5809 5810 5811 5811 5810 5810 5811 5813 5815 5817 5819 5821 5823 5824
5763 5762 5761 5760 5760 5759 5760 5760 5761 5762 5763 5764 5765 5766 5769 5770 5773 5775 5778 5780 5783 5787 5790 5793 5796 5799 5800 5802 5803 5804 5804 5805 5805 5805 5804 5804 5805 5807 5809 5811 5813 5815 5816 5817
5760 5758 5757 5757 5757 5756 5757 5757 5758 5759 5760 5761 5762 5763 5766 5767 5769 5772 5774 5776 5779 5782 5785 5787 5790 5793 5795 5796 5798 5799 5799 5799 5799 5799 5799 5799 5800 5802 5804 5805 5807 5809 5810 5811
5757 5755 5754 5754 5754 5754 5754 5755 5755 5756 5757 5758 5759 5760 5762 5764 5766 5768 5770 5772 5775 5777 5780 5782 5784 5786 5788 5790 5792 5793 5793 5794 5794 5795 5795 5795 5796 5797 5799 5800 5801 5802 5803 5804
5755 5753 5752 5751 5751 5752 5752 5753 5754 5754 5755 5756 5757 5758 5760 5761 5762 5764 5766 5768 5770 5773 5775 5776 5778 5780 5782 5784 5785 5787 5787 5788 5789 5790 5790 5790 5791 5792 5793 5794 5795 5796 5797 5797
5752 5752 5750 5749 5749 5750 5750 5752 5753 5753 5754 5754 5755 5755 5758 5758 5758 5760 5762 5764 5766 5768 5769 5771 5772 5774 5776 5778 5779 5780 5781 5783 5784 5785 5784 5785 5786 5787 5787 5788 5789 5790 5790 5791
5750 5750 5748 5747 5747 5748 5748 5749 5751 5751 5751 5752 5752 5753 5754 5754 5755 5756 5757 5759 5761 5762 5764 5765 5767 5768 5770 5771 5773 5774 5776 5777 5778 5779 5779 5779 5780 5781 5781 5782 5783 5783 5783 5784
5748 5748 5747 5746 5746 5746 5747 5748 5749 5749 5749 5750 5751 5751 5752 5752 5752 5752 5753 5754 5755 5757 5758 5759 5761 5763 5764 5766 5767 5768 5769 5770 5772 5773 5773 5774 5774 5774 5775 5775 5775 5775 5776 5776
5746 5746 5746 5745 5744 5745 5746 5746 5746 5747 5748 5748 5748 5751 5749 5749 5749 5748 5748 5749 5750 5751 5752 5754 5755 5757 5758 5759 5761 5762 5763 5764 5765 5766 5767 5767 5767 5768 5768 5768 5768 5768 5768 5767
5745 5744 5744 5743 5743 5743 5744 5744 5745 5746 5746 5746 5746 5750 5747 5746 5746 5746 5745 5745 5746 5747 5748 5749 5750 5750 5752 5753 5755 5756 5757 5758 5758 5759 5759 5760 5760 5760 5760 5760 5760 5760 5759 5759
5744 5743 5743 5742 5743 5743 5743 5743 5743 5744 5744 5744 5744 5747 5744 5743 5743 5743 5742 5742 5742 5743 5743 5744 5745 5745 5746 5747 5748 5749 5750 5751 5751 5751 5751 5752 5752 5752 5752 5751 5751 5751 5751 5750
5742 5742 5742 5742 5741 5741 5741 5742 5742 5742 5742 5742 5742 5741 5741 5740 5740 5739 5739 5739 5739 5739 5739 5739 5740 5740 5740 5741 5742 5742 5743 5743 5743 5743 5743 5743 5743 5743 5743 5743 5742 5742 5742 5741
5741 5741 5740 5740 5739 5739 5740 5740 5740 5740 5740 5739 5739 5738 5738 5737 5736 5736 5735 5735 5735 5734 5734 5734 5734 5734 5735 5735 5735 5735 5735 5735 5736 5736 5735 5735 5735 5735 5735 5734 5734 5733 5732 5731
5740 5740 5739 5739 5738 5738 5738 5739 5738 5738 5737 5736 5735 5735 5734 5733 5733 5732 5731 5731 5730 5730 5729 5729 5729 5729 5729 5729 5728 5728 5728 5728 5729 5728 5728 5728 5728 5727 5727 5726 5725 5725 5724 5722
5739 5739 5738 5738 5737 5738 5737 5737 5736 5735 5734 5733 5732 5732 5730 5730 5729 5728 5727 5727 5726 5725 5725 5724 5723 5723 5723 5722 5722 5722 5722 5722 5721 5721 5721 5721 5720 5720 5719 5719 5718 5717 5716 5715
5738 5737 5737 5737 5737 5737 5738 5735 5734 5732 5731 5730 5729 5728 5727 5726 5725 5724 5723 5722 5721 5721 5720 5719 5718 5717 5717 5716 5716 5716 5716 5715 5715 5715 5714 5714 5713 5712 5712 5711 5710 5710 5709 5708
5737 5737 5736 5736 5735 5735 5735 5733 5732 5731 5729 5727 5726 5724 5723 5721 5720 5719 5718 5717 5717 5716 5714 5714 5713 5712 5711 5711 5710 5710 5709 5709 5708 5708 5707 5707 5706 5706 5705 5704 5704 5703 5702 5700
5736 5736 5737 5735 5735 5734 5735 5732 5730 5730 5727 5725 5723 5721 5720 5718 5717 5716 5714 5713 5712 5710 5709 5708 5707 5706 5706 5705 5704 5704 5703 5703 5702 5702 5701 5701 5700 5699 5699 5698 5697 5696 5695 5694
5736 5736 5736 5735 5734 5734 5733 5731 5730 5729 5727 5723 5720 5718 5717 5715 5714 5712 5710 5708 5707 5706 5704 5703 5702 5701 5700 5699 5699 5698 5698 5697 5697 5696 5696 5695 5695 5694 5693 5692 5691 5690 5690 5689
5736 5736 5736 5735 5734 5735 5732 5730 5729 5727 5724 5721 5718 5716 5714 5712 5710 5708 5706 5704 5703 5701 5700 5699 5697 5696 5695 5694 5693 5693 5693 5692 5692 5692 5691 5690 5690 5689 5688 5687 5686 5685 5684 5683
5737 5737 5736 5736 5736 5733 5731 5729 5727 5725 5722 5720 5717 5715 5713 5710 5708 5706 5704 5702 5700 5698 5696 5695 5693 5692 5691 5690 5689 5689 5689 5688 5688 5687 5687 5686 5685 5684 5683 5682 5681 5680 5679 5678
5737 5736 5736 5735 5734 5733 5731 5729 5727 5724 5721 5719 5716 5714 5711 5709 5707 5704 5702 5700 5698 5695 5694 5692 5690 5688 5687 5686 5685 5685 5685 5685 5684 5684 5683 5682 5681 5680 5679 5678 5677 5676 5675 5674
5737 5736 5736 5735 5734 5733 5731 5728 5726 5724 5721 5718 5716 5713 5711 5708 5706 5703 5701 5699 5696 5694 5691 5689 5687 5686 5684 5684 5683 5683 5682 5682 5681 5680 5679 5678 5677 5677 5676 5675 5674 5673 5672 5671
5737 5737 5737 5736 5735 5733 5731 5729 5727 5724 5722 5719 5716 5713 5711 5708 5706 5703 5700 5698 5695 5693 5690 5688 5686 5685 5683 5682 5682 5681 5681 5680 5679 5678 5677 5676 5675 5674 5673 5673 5672 5671 5670 5669